Location: Unspecified
(0.0000°N, 0.0000°E)
Time: 16:01:29
(UTC+00:00)

Courier 1B - All Passes

Search period start: 24 March 2017 00:00
Search period end: 03 April 2017 00:00
Orbit: 963 x 1209 km, 28.3° (Epoch: 22 March)

Date Brightness Start Highest point End Pass type
(mag) Time Alt. Az. Time Alt. Az. Time Alt. Az.
24 Mar - 00:49:24 10° WSW 00:53:40 15° SSW 00:57:52 10° S night (unlit)
24 Mar - 06:39:44 10° S 06:42:57 14° SSE 06:46:04 10° SE daylight
24 Mar - 08:31:18 10° SW 08:37:37 45° SSE 08:43:46 10° E daylight
24 Mar - 10:25:25 10° WSW 10:31:38 48° NNW 10:37:51 10° NE daylight
24 Mar - 12:23:04 10° NW 12:26:10 14° NNW 12:29:19 10° N daylight
24 Mar - 18:11:36 10° N 18:15:09 14° NNE 18:18:46 10° NE daylight
24 Mar - 20:02:59 10° NW 20:10:07 43° NNE 20:17:28 10° E visible
24 Mar - 21:56:55 10° WNW 22:04:36 62° SSW 22:12:22 10° SE visible
24 Mar - 23:53:52 10° WSW 23:59:26 21° SSW 00:04:56 10° SSE night (unlit)
25 Mar - 05:47:58 10° SSE 05:48:46 10° SSE 05:49:34 10° SSE visible
25 Mar - 07:37:50 10° SW 07:43:48 33° SSE 07:49:34 10° E daylight
25 Mar - 09:31:23 10° WSW 09:37:55 68° NNW 09:44:20 10° NE daylight
25 Mar - 11:27:49 10° WNW 11:32:11 19° NNW 11:36:35 10° NNE daylight
25 Mar - 19:09:37 10° NNW 19:16:06 32° NNE 19:22:49 10° E visible
25 Mar - 21:02:53 10° WNW 21:10:35 83° SSW 21:18:30 10° ESE visible
25 Mar - 22:58:49 10° W 23:05:15 27° SSW 23:11:41 10° SSE night (unlit)
26 Mar - 06:44:29 10° SSW 06:49:55 24° SSE 06:55:07 10° ESE daylight
26 Mar - 08:37:29 10° WSW 08:44:12 85° SSE 08:50:41 10° ENE daylight
26 Mar - 10:33:01 10° W 10:38:18 26° NNW 10:43:34 10° NNE daylight
26 Mar - 18:16:27 10° NNW 18:22:03 23° NNE 18:27:50 10° ENE visible
26 Mar - 20:09:04 10° NW 20:16:36 74° NNE 20:24:27 10° ESE visible
26 Mar - 22:04:08 10° W 22:11:08 36° SSW 22:18:15 10° SE visible
27 Mar - 00:03:23 10° SW 00:06:28 12° SSW 00:09:33 10° S night (unlit)
27 Mar - 05:51:16 10° SSW 05:55:54 18° SSE 06:00:22 10° ESE daylight
27 Mar - 07:43:43 10° SW 07:50:27 61° SSE 07:56:53 10° ENE daylight
27 Mar - 09:38:31 10° W 09:44:30 36° NNW 09:50:21 10° NE daylight
27 Mar - 11:38:37 10° NNW 11:39:13 10° NNW 11:39:49 10° NNW daylight
27 Mar - 17:23:36 10° NNW 17:27:57 17° NNE 17:32:27 10° ENE daylight
27 Mar - 19:15:27 10° NW 19:22:38 54° NNE 19:30:12 10° ESE visible
27 Mar - 21:09:45 10° WNW 21:17:04 49° SSW 21:24:37 10° SE visible
27 Mar - 23:07:28 10° WSW 23:12:09 17° SSW 23:16:50 10° SSE night (unlit)
28 Mar - 04:58:15 10° S 05:01:46 14° SSE 05:05:11 10° SE visible
28 Mar - 06:50:03 10° SW 06:56:39 43° SSE 07:02:54 10° E daylight
28 Mar - 08:44:13 10° WSW 08:50:44 51° NNW 08:57:01 10° NE daylight
28 Mar - 10:41:49 10° NW 10:45:09 14° NNW 10:48:29 10° N daylight
28 Mar - 16:31:23 10° N 16:33:49 12° NNE 16:36:17 10° NE daylight
28 Mar - 18:22:02 10° NW 18:28:41 39° NNE 18:35:42 10° E visible
28 Mar - 20:15:38 10° WNW 20:23:04 66° SSW 20:30:50 10° SE visible
28 Mar - 22:12:11 10° WSW 22:17:53 22° SSW 22:23:41 10° SSE visible
29 Mar - 04:05:52 10° S 04:07:31 11° SSE 04:09:08 10° SSE visible
29 Mar - 05:56:30 10° SW 06:02:45 32° SSE 06:08:41 10° E daylight
29 Mar - 07:50:07 10° WSW 07:57:00 74° NNW 08:03:31 10° NE daylight
29 Mar - 09:46:33 10° WNW 09:51:13 20° NNW 09:55:48 10° NNE daylight
29 Mar - 17:28:48 10° NNW 17:34:44 28° NNE 17:40:57 10° E daylight
29 Mar - 19:21:44 10° WNW 19:29:06 88° SSW 19:36:54 10° ESE visible
29 Mar - 21:17:20 10° W 21:23:43 29° SSW 21:30:18 10° SSE visible
29 Mar - 23:18:47 10° SSW 23:19:21 10° SSW 23:19:55 10° SSW night (unlit)
30 Mar - 05:03:02 10° SSW 05:08:46 24° SSE 05:14:13 10° ESE visible
30 Mar - 06:56:09 10° WSW 07:03:13 80° SSE 07:09:53 10° ENE daylight
30 Mar - 08:51:43 10° W 08:57:21 28° NNW 09:02:49 10° NNE daylight
30 Mar - 16:35:49 10° NNW 16:40:45 20° NNE 16:45:53 10° ENE daylight
30 Mar - 18:28:04 10° NW 18:35:10 69° NNE 18:42:46 10° ESE visible
30 Mar - 20:22:49 10° W 20:29:37 38° SSW 20:36:45 10° SE visible
30 Mar - 22:21:30 10° SW 22:24:56 13° SSW 22:28:24 10° S visible
31 Mar - 04:09:43 10° SSW 04:14:40 19° SSE 04:19:26 10° ESE visible
31 Mar - 06:02:18 10° SW 06:09:25 58° SSE 06:16:04 10° ENE daylight
31 Mar - 07:57:09 10° W 08:03:32 40° NNW 08:09:38 10° NE daylight
31 Mar - 09:56:26 10° NW 09:58:10 11° NNW 09:59:53 10° N daylight
31 Mar - 15:43:12 10° N 15:46:43 14° NNE 15:50:20 10° NE daylight
31 Mar - 17:34:34 10° NW 17:41:18 49° NNE 17:48:28 10° ESE daylight
31 Mar - 19:28:35 10° WNW 19:35:37 51° SSW 19:43:03 10° SE visible
31 Mar - 21:25:53 10° WSW 21:30:37 17° SSW 21:35:26 10° SSE visible
01 Apr - 03:16:36 10° S 03:20:27 14° SSE 03:24:12 10° SE visible
01 Apr - 05:08:34 10° SW 05:15:31 42° SSE 05:22:02 10° E visible
01 Apr - 07:02:48 10° WSW 07:09:45 56° NNW 07:16:17 10° NE daylight
01 Apr - 09:00:15 10° WNW 09:04:08 16° NNW 09:07:56 10° N daylight
01 Apr - 16:41:17 10° NW 16:47:25 35° NNE 16:53:56 10° E daylight
01 Apr - 18:34:36 10° WNW 18:41:40 69° SSW 18:49:13 10° SE visible
01 Apr - 20:30:49 10° WSW 20:36:24 22° SSW 20:42:11 10° SSE visible
02 Apr - 02:24:00 10° S 02:26:06 11° SSE 02:28:12 10° SSE visible
02 Apr - 04:14:57 10° SSW 04:21:32 32° SSE 04:27:46 10° E visible
02 Apr - 06:08:37 10° WSW 06:15:56 79° NNW 06:22:46 10° NE daylight
02 Apr - 08:04:59 10° WNW 08:10:11 22° NNW 08:15:12 10° NNE daylight
02 Apr - 15:48:10 10° NNW 15:53:33 25° NNE 15:59:10 10° E daylight
02 Apr - 17:40:50 10° WNW 17:47:47 87° NNE 17:55:14 10° ESE daylight
02 Apr - 19:36:08 10° W 19:42:17 29° SSW 19:48:44 10° SSE visible
02 Apr - 21:36:44 10° SSW 21:37:50 10° SSW 21:38:56 10° S visible
